sat.trackr.live / text

‹ back to catalog

STARLINK-30309

NORAD 57632 · 2023-122A

PAYLOAD ACTIVE UNKNOWN

§ Identity

Operator
Country
US
Launch date
2023-08-17
Launch site
AFETR
Launch vehicle
Mass (kg)
RCS (m²)

Purposes: comms

External: N2YO · Heavens-Above · Gunter

§ Orbital elements

Epoch: 2026-09-20T04:54:52.960032Z

Period
94.27 min
Inclination
43.0033°
Eccentricity
0.0000483
Mean motion
15.27600923 rev/d
Perigee alt
482.7 km
Apogee alt
483.3 km
Semi-major
6,861.1 km
B*
1.2607e-4
RAAN
74.1478°
Arg perigee
253.4779°
Mean anomaly
106.6019°
Rev number
17,195

§ Raw data

STARLINK-303091 57632U 23122A   26263.20477963  .00003211  00000+0  12607-3 0  99952 57632  43.0033  74.1478 0000483 253.4779 106.6019 15.27600923171952

JSON: /api/v1/satellites/57632 · /tle

For live sub-satellite position, see the globe view (requires WebGL).

§ Visibility from observer

Set your observer location to see the next 7 days of passes ≥ 10°. The values pass through the URL so the page stays shareable.

No JS? Fill the form by hand. The geolocation button needs JavaScript.